Back to catalog

COSMOS 2545

GLONASS

AliveNavigationMEO
NORAD 45358·PAYLOAD·🇷🇺 Russia

Launched Mar 16, 2020 from Plesetsk Cosmodrome

Loading…

Next Passes (next 24 hours)

TLE

FreshSource: CelesTrak SupGP

Epoch: Sep 13, 2026, 23:59 UTC

1 45358C 20018A   26256.99979167  .00000000  00000+0  00000+0 0  2568
2 45358  64.2965 309.2932 0011985 237.0244 188.4344  2.13102766    14

Track COSMOS 2545 in real time with AllMySat

Download on the App Store